[[{"header":{"parameterUnit":"m.s-1","parameterCategory":2,"la1":30.2991,"la2":30.254,"lo1":-89.0895,"lo2":-89.0444,"dy":0.0017,"dx":0.0017,"nx":28,"ny":28,"refTime":"2026-01-05T03:00:00:Z","depth":"0","parameterNumber":2,"parameterNumberName":"U-component_of_CURRENTS"},"data":[0,0,0,0,0,0,0,0,0,0,0,0,0,0,0,0,0,0,0,0,0,0,0,0,0,0,0,0,0,0,0,0,0,0,0,0,0,0,0,0,0,0,0,0,0,0,0,0,0,0,0,0,0,0,0,0,0,0,0.3434,0.3434,0,0.3422,0.3421,0.3421,0.3399,0.3399,0.3399,0.3399,0.3353,0.3352,0.3351,0,0,0,0,0,0,0,0,0,0,0,0,0,0.3474,0.3473,0.3434,0.3434,0.3435,0.3422,0.3421,0.3421,0.3399,0.3399,0.3399,0.3399,0.3354,0.3352,0.3351,0,0,0,0,0,0,0,0,0,0,0,0,0,0.3455,0.3472,0.3434,0.3425,0.3425,0.3422,0.3421,0.342,0.3399,0.3399,0.3399,0.3399,0.3354,0.3353,0.3351,0.334,0,0,0.3345,0.3344,0,0,0,0,0,0,0,0,0.3456,0.3453,0.3426,0.3426,0.3425,0.3416,0.3419,0.3393,0.3399,0.3405,0.3399,0.3399,0.3374,0.337,0.3363,0.3338,0.3336,0.3345,0.3344,0.3343,0.3343,0,0,0,0,0,0,0,0.3457,0.3453,0.3425,0.3427,0.3426,0.3434,0.3431,0.3414,0.3386,0.3404,0.3404,0.3409,0.3373,0.3365,0.3362,0.3336,0.3345,0.3344,0.3342,0.3342,0.3309,0.331,0,0,0,0,0,0,0.3465,0.3454,0.3425,0.3425,0.3445,0.3434,0.343,0.3415,0.3387,0.3384,0.3409,0.3408,0.3368,0.3364,0.336,0.3369,0.3343,0.3342,0.3341,0.3309,0.331,0.331,0,0,0,0,0,0,0.3465,0.3461,0.3426,0.3444,0.3441,0.3433,0.3418,0.3415,0.3416,0.3391,0.3387,0.3413,0.3367,0.3362,0.3356,0.3366,0.3341,0.3339,0.3309,0.3309,0.331,0.3372,0,0,0,0,0,0,0.3466,0.3461,0.3456,0.3444,0.344,0.3426,0.3418,0.3415,0.342,0.3419,0.3393,0.3389,0.3367,0.3359,0.3354,0.3363,0.3338,0.3309,0.3309,0.331,0.337,0.3375,0.3379,0,0,0,0,0,0.3467,0.3454,0.3455,0.3452,0.3431,0.3427,0.3425,0.3418,0.3421,0.3418,0.3409,0.339,0.3358,0.3358,0.3352,0.3361,0.3309,0.3309,0.331,0.3368,0.3374,0.3379,0,0,0,0,0,0,0.345,0.3451,0.3451,0.3434,0.3436,0.3425,0.3423,0.3426,0.3416,0.3414,0.3396,0.339,0.3391,0.3364,0.3365,0.3351,0.3328,0.3328,0.3375,0.338,0.3384,0.3382,0.3336,0,0,0,0,0,0.3451,0.3446,0.3447,0.3432,0.3437,0.3435,0.3435,0.3431,0.3424,0.342,0.3405,0.3389,0.3387,0.3375,0.3362,0.3352,0.3376,0.3352,0.3356,0.3361,0.3354,0.3437,0.345,0.3311,0.3311,0.3311,0,0,0.344,0.3439,0.3436,0.3431,0.343,0.3431,0.3433,0.3431,0.3431,0.3416,0.3407,0.3408,0.339,0.3386,0.3382,0.3365,0.3411,0.3361,0.3365,0.3356,0.3439,0.3453,0.3466,0.3312,0.3312,0.3312,0,0,0.3418,0.3417,0.3413,0.3419,0.3427,0.3428,0.3434,0.3431,0.3431,0.3431,0.3428,0.3436,0.3413,0.3409,0.3405,0.3423,0.3441,0.3417,0.3428,0.3511,0.3524,0.3535,0.3587,0.3602,0.3409,0.341,0.341,0,0.341,0.3393,0.341,0.3411,0.3414,0.343,0.3427,0.3433,0.3427,0.344,0.3431,0.3446,0.3424,0.3447,0.3443,0.3434,0.348,0.3415,0.3521,0.3533,0.3544,0.3593,0.361,0.3413,0.3412,0.3412,0.3412,0,0.3387,0.3381,0.3378,0.3386,0.3397,0.3391,0.3412,0.3425,0.3436,0.3448,0.348,0.3471,0.3481,0.3479,0.346,0.352,0.3528,0.3532,0.3516,0.3562,0.361,0.3627,0.3417,0.3416,0.3415,0.3414,0,0,0.3344,0.3361,0.3357,0.3363,0.3381,0.3385,0.3406,0.3432,0.3468,0.3474,0.3527,0.3512,0.353,0.3525,0.3522,0.3572,0.3677,0.3578,0.3581,0.3643,0.3859,0.3708,0.3711,0.3723,0.3726,0.3729,0.3864,0,0.3316,0.3314,0.3328,0.3327,0.333,0.3365,0.3389,0.3425,0.3464,0.3523,0.3549,0.3592,0.3544,0.357,0.3611,0.3675,0.3723,0.3639,0.379,0.3793,0.3667,0.3725,0.3483,0.357,0.388,0.3882,0.3884,0,0.3279,0.3288,0.3282,0.3313,0.332,0.3327,0.3392,0.3417,0.3511,0.3553,0.3611,0.3652,0.3712,0.3683,0.3801,0.3761,0.38,0.3843,0.385,0.3694,0.3672,0.3571,0.3588,0.3482,0.3909,0.3907,0.3905,0,0.3239,0.3248,0.3243,0.325,0.3295,0.331,0.334,0.3424,0.3479,0.359,0.3669,0.3737,0.3813,0.3873,0.3916,0.3891,0.4066,0.4049,0.3947,0.3938,0.3745,0.3711,0.3681,0.4141,0.4141,0.4141,0.414,0,0.3197,0.3196,0.3226,0.3226,0.325,0.3287,0.3344,0.3397,0.3511,0.3606,0.368,0.3783,0.3876,0.3975,0.3983,0.4003,0.412,0.3954,0.3967,0.3755,0.3722,0.3629,0.3603,0.4146,0.4145,0.4144,0.4143,0,0.316,0.317,0.3175,0.3213,0.3229,0.325,0.3348,0.3414,0.3513,0.3653,0.3702,0.387,0.3973,0.4028,0.4154,0.4091,0.3985,0.4101,0.382,0.3793,0.3529,0.3515,0.3383,0.3293,0.4004,0.4001,0.3998,0,0.3145,0.3137,0.3167,0.3187,0.3204,0.3253,0.331,0.3404,0.349,0.3698,0.3777,0.3929,0.4011,0.4103,0.4,0.3971,0.3902,0.3756,0.3629,0.3476,0.3475,0.3368,0.3296,0.342,0.3413,0.3408,0.3403,0,0.3124,0.3126,0.3143,0.3192,0.3231,0.3284,0.3365,0.3426,0.3565,0.3677,0.3837,0.3918,0.3951,0.3803,0.3734,0.3684,0.3517,0.3634,0.3572,0.3077,0.2867,0.2797,0.3371,0.3352,0.3357,0.3361,0.3364,0.3366,0.3115,0.3133,0.3161,0.3195,0.325,0.3304,0.3317,0.3415,0.3513,0.3594,0.3752,0.3734,0.3621,0.345,0.3396,0.3072,0.315,0.2933,0.2955,0.2883,0.2684,0.3111,0.3037,0.304,0.3043,0.3045,0.3047,0,0.3118,0.314,0.3176,0.321,0.3241,0.328,0.3352,0.3331,0.3381,0.3415,0.3462,0.3235,0.3044,0.2911,0.2579,0.2424,0.2327,0.2356,0.2175,0.2164,0.2626,0.2484,0.2165,0.2165,0.2166,0.2166,0.2166,0.2166,0.3123,0.3147,0.3159,0.3179,0.3203,0.3193,0.3198,0.3156,0.313,0.2951,0.2754,0.2676,0.2547,0.2301,0.2037,0.1975,0.186,0.1695,0.1813,0.215,0.2206,0.2259,0.2119,0.1729,0.1729,0.1195,0.1191,0.1188]},{"header":{"parameterUnit":"m.s-1","parameterCategory":2,"la1":30.2991,"la2":30.254,"lo1":-89.0895,"lo2":-89.0444,"dy":0.0017,"dx":0.0017,"nx":28,"ny":28,"refTime":"2026-01-05T03:00:00:Z","depth":"0","parameterNumber":3,"parameterNumberName":"V-component_of_CURRENTS"},"data":[0,0,0,0,0,0,0,0,0,0,0,0,0,0,0,0,0,0,0,0,0,0,0,0,0,0,0,0,0,0,0,0,0,0,0,0,0,0,0,0,0,0,0,0,0,0,0,0,0,0,0,0,0,0,0,0,0,0,0.0115,0.0115,0,0.0119,0.0119,0.0119,0.0113,0.0113,0.0113,0.0113,0.0075,0.0074,0.0074,0,0,0,0,0,0,0,0,0,0,0,0,0,0.0083,0.0083,0.0115,0.0115,0.0115,0.0119,0.0119,0.0119,0.0113,0.0113,0.0113,0.0113,0.0076,0.0075,0.0073,0,0,0,0,0,0,0,0,0,0,0,0,0,0.0092,0.0084,0.0115,0.0113,0.0113,0.012,0.0119,0.0119,0.0113,0.0113,0.0113,0.0113,0.0076,0.0075,0.0073,0.0068,0,0,0.0069,0.0069,0,0,0,0,0,0,0,0,0.0091,0.0093,0.0113,0.0114,0.0114,0.0117,0.0094,0.0101,0.0113,0.0112,0.0113,0.0113,0.0086,0.0084,0.0084,0.0067,0.0065,0.0069,0.0068,0.0068,0.0067,0,0,0,0,0,0,0,0.0091,0.0093,0.0115,0.0114,0.0114,0.0107,0.0108,0.0096,0.0098,0.0112,0.0112,0.0115,0.0086,0.0085,0.0083,0.0064,0.0069,0.0068,0.0067,0.0067,0.0039,0.0039,0,0,0,0,0,0,0.0094,0.0092,0.0115,0.0116,0.0103,0.0108,0.0109,0.0115,0.0099,0.0098,0.0115,0.0114,0.0088,0.0085,0.0082,0.0095,0.0068,0.0066,0.0066,0.0039,0.0039,0.0039,0,0,0,0,0,0,0.0093,0.0096,0.0115,0.0105,0.0107,0.0109,0.0115,0.0115,0.0118,0.0102,0.0099,0.0119,0.0088,0.0084,0.0074,0.0093,0.0066,0.0065,0.0039,0.0039,0.0039,0.0109,0,0,0,0,0,0,0.0092,0.0096,0.01,0.0105,0.0108,0.0127,0.0116,0.0115,0.012,0.012,0.0104,0.01,0.0087,0.0076,0.0073,0.009,0.0064,0.0039,0.0039,0.0039,0.0107,0.0111,0.0116,0,0,0,0,0,0.0091,0.0104,0.01,0.0103,0.0114,0.0128,0.0129,0.0128,0.0121,0.0129,0.0113,0.0101,0.0074,0.0075,0.0071,0.0089,0.0039,0.0039,0.0039,0.0104,0.011,0.0115,0,0,0,0,0,0,0.0095,0.0105,0.0101,0.0116,0.0123,0.0128,0.0135,0.0132,0.0126,0.0123,0.0103,0.0099,0.0097,0.0078,0.0079,0.0078,0.0054,0.0053,0.0105,0.0111,0.0115,0.014,0.0062,0,0,0,0,0,0.0097,0.0107,0.0114,0.0126,0.0131,0.0132,0.0136,0.0137,0.0134,0.0132,0.0119,0.0102,0.0094,0.009,0.0076,0.0077,0.009,0.0083,0.0088,0.0092,0.0108,0.0144,0.0155,0.004,0.004,0.004,0,0,0.01,0.0108,0.0112,0.0127,0.0131,0.0154,0.0134,0.0148,0.0168,0.0128,0.0141,0.0117,0.0096,0.0099,0.0097,0.0087,0.0132,0.0092,0.0096,0.011,0.0146,0.0157,0.0168,0.004,0.004,0.004,0,0,0.0126,0.0121,0.0144,0.0153,0.0166,0.0169,0.0175,0.018,0.0182,0.0189,0.0166,0.0157,0.0139,0.0136,0.0131,0.0151,0.0153,0.0135,0.0185,0.022,0.0231,0.024,0.0282,0.0294,0.014,0.0141,0.0141,0,0.0131,0.0164,0.0153,0.0181,0.0196,0.018,0.0215,0.0217,0.0217,0.0229,0.0202,0.0192,0.0165,0.0189,0.0187,0.0166,0.0184,0.017,0.023,0.0239,0.0248,0.0288,0.0301,0.0144,0.0144,0.0143,0.0143,0,0.0182,0.0204,0.0219,0.025,0.0262,0.0287,0.0292,0.03,0.0294,0.0299,0.0311,0.0274,0.0275,0.0256,0.0225,0.0267,0.0261,0.0233,0.0225,0.0265,0.0303,0.0316,0.0149,0.0148,0.0147,0.0146,0,0,0.0208,0.0249,0.0254,0.0284,0.0302,0.0324,0.0352,0.0387,0.0423,0.0401,0.045,0.0411,0.0389,0.038,0.034,0.0354,0.0419,0.0318,0.0319,0.0377,0.0509,0.0475,0.0485,0.0404,0.0406,0.0408,0.0517,0,0.0256,0.0324,0.0329,0.0392,0.043,0.0425,0.046,0.0482,0.049,0.0527,0.0499,0.0522,0.0439,0.0443,0.0443,0.0429,0.0454,0.0393,0.0447,0.045,0.0429,0.0499,0.0481,0.0573,0.0529,0.0531,0.0532,0,0.0311,0.0352,0.0423,0.0481,0.0497,0.0527,0.0586,0.0618,0.0654,0.0662,0.0671,0.0651,0.0666,0.0587,0.0605,0.0571,0.0549,0.053,0.0534,0.0489,0.0439,0.0522,0.0597,0.0496,0.0551,0.055,0.0548,0,0.0352,0.0419,0.0481,0.0498,0.0557,0.0587,0.062,0.0661,0.0711,0.0758,0.0806,0.0798,0.0834,0.0791,0.0735,0.0684,0.0764,0.0694,0.0649,0.0646,0.0636,0.0628,0.0635,0.0724,0.0724,0.0724,0.0723,0,0.0405,0.0454,0.0504,0.0539,0.062,0.0639,0.0727,0.0754,0.082,0.0914,0.0882,0.0968,0.0889,0.0911,0.0817,0.0789,0.0839,0.0687,0.0681,0.0657,0.065,0.0562,0.0504,0.0728,0.0727,0.0726,0.0725,0,0.0439,0.0471,0.0547,0.0616,0.0642,0.0699,0.0795,0.0863,0.0917,0.1042,0.1071,0.1136,0.1176,0.1086,0.106,0.0933,0.0826,0.0854,0.0831,0.0819,0.0633,0.058,0.06,0.0551,0.0822,0.0822,0.0822,0,0.0465,0.051,0.0599,0.0651,0.0683,0.0769,0.0837,0.0903,0.0985,0.116,0.1237,0.1327,0.1427,0.1369,0.1162,0.1025,0.0896,0.0885,0.0764,0.0649,0.0587,0.054,0.0494,0.0789,0.0788,0.0788,0.0788,0,0.0518,0.0544,0.0602,0.0709,0.0785,0.0882,0.0985,0.1064,0.1177,0.132,0.1529,0.164,0.1595,0.1479,0.1255,0.1123,0.08,0.0873,0.0775,0.0587,0.0521,0.0463,0.0692,0.0786,0.0786,0.0786,0.0786,0.0786,0.0553,0.0599,0.0676,0.0776,0.0869,0.099,0.1085,0.1226,0.1406,0.1641,0.1733,0.194,0.1715,0.1429,0.1226,0.0804,0.0817,0.0658,0.0618,0.0591,0.0498,0.0717,0.0777,0.0777,0.0777,0.0777,0.0777,0,0.0602,0.0654,0.0747,0.0867,0.0975,0.1016,0.1186,0.1311,0.1552,0.1795,0.2008,0.2008,0.1745,0.1395,0.0835,0.0583,0.0474,0.0456,0.0385,0.0358,0.0581,0.0528,0.0511,0.0511,0.0512,0.0512,0.0512,0.0512,0.0632,0.0715,0.076,0.0935,0.1025,0.1184,0.1287,0.1499,0.1698,0.2001,0.2132,0.2212,0.1924,0.1057,0.0499,0.0376,0.0207,0.0179,0.0116,0.0248,0.0263,0.0277,0.0213,0.0131,0.0131,-0.0106,-0.0108,-0.011]}],[{"header":{"parameterUnit":"m.s-1","parameterCategory":2,"la1":30.2991,"la2":30.254,"lo1":-89.0895,"lo2":-89.0444,"dy":0.0017,"dx":0.0017,"nx":28,"ny":28,"refTime":"2026-01-05T03:00:00:Z","depth":"2","parameterNumber":2,"parameterNumberName":"U-component_of_CURRENTS"},"data":[0,0,0,0,0,0,0,0,0,0,0,0,0,0,0,0,0,0,0,0,0,0,0,0,0,0,0,0,0,0,0,0,0,0,0,0,0,0,0,0,0,0,0,0,0,0,0,0,0,0,0,0,0,0,0,0,0,0,0.2224,0.2225,0,0.2231,0.2231,0.2231,0.2227,0.2228,0.2228,0.2228,0.2241,0.2241,0.2241,0,0,0,0,0,0,0,0,0,0,0,0,0,0.224,0.224,0.2224,0.2225,0.2225,0.2231,0.2231,0.2231,0.2227,0.2228,0.2228,0.2228,0.2241,0.2241,0.2241,0,0,0,0,0,0,0,0,0,0,0,0,0,0.2234,0.2239,0.2224,0.2228,0.2229,0.2231,0.2231,0.223,0.2227,0.2228,0.2228,0.2228,0.2241,0.2241,0.2241,0.2234,0,0,0.2242,0.2242,0,0,0,0,0,0,0,0,0.2235,0.2233,0.2227,0.2228,0.2229,0.2233,0.2242,0.2234,0.2227,0.2223,0.2228,0.2229,0.2242,0.2242,0.2235,0.2235,0.2235,0.2242,0.2242,0.2242,0.2242,0,0,0,0,0,0,0,0.2235,0.2233,0.2222,0.2227,0.2229,0.2241,0.224,0.224,0.2226,0.2223,0.2224,0.2232,0.2242,0.2235,0.2236,0.2235,0.2242,0.2242,0.2242,0.2242,0.2269,0.227,0,0,0,0,0,0,0.2241,0.2233,0.2222,0.2223,0.2238,0.224,0.2239,0.2227,0.2226,0.2228,0.2232,0.2232,0.2235,0.2235,0.2236,0.2278,0.2242,0.2242,0.2242,0.2269,0.2269,0.227,0,0,0,0,0,0,0.2241,0.2239,0.2222,0.2233,0.2233,0.224,0.2227,0.2227,0.2238,0.2234,0.2235,0.2245,0.2235,0.2236,0.2251,0.2277,0.2242,0.2242,0.2268,0.2269,0.227,0.2331,0,0,0,0,0,0,0.2241,0.2239,0.2244,0.2233,0.2232,0.2228,0.2227,0.2227,0.2244,0.2244,0.2245,0.2245,0.2235,0.2251,0.2251,0.2277,0.2242,0.2267,0.2268,0.2269,0.2328,0.2334,0.2338,0,0,0,0,0,0.2242,0.2242,0.2243,0.2243,0.2234,0.2228,0.2228,0.2233,0.2244,0.2244,0.2253,0.2246,0.2259,0.2251,0.2252,0.2278,0.2266,0.2268,0.2269,0.2325,0.2332,0.2338,0,0,0,0,0,0,0.2242,0.2241,0.2243,0.224,0.2239,0.223,0.2239,0.2244,0.2249,0.2261,0.2254,0.2255,0.2283,0.2266,0.2258,0.2287,0.2262,0.2263,0.2304,0.2311,0.2316,0.2324,0.2242,0,0,0,0,0,0.2247,0.2248,0.2246,0.2242,0.2248,0.2248,0.2253,0.2257,0.2259,0.2262,0.2264,0.227,0.2285,0.2287,0.2292,0.2303,0.2314,0.2319,0.2324,0.2329,0.2335,0.2382,0.2393,0.2275,0.2275,0.2275,0,0,0.2248,0.2247,0.2249,0.2245,0.2246,0.2253,0.225,0.2262,0.2275,0.2264,0.2285,0.2295,0.2294,0.2314,0.2323,0.2304,0.2368,0.2331,0.2335,0.2338,0.2385,0.2397,0.2407,0.2276,0.2276,0.2275,0,0,0.2246,0.2248,0.2253,0.2255,0.2268,0.2269,0.2278,0.2282,0.2293,0.2314,0.2319,0.2345,0.235,0.2358,0.2364,0.24,0.2403,0.2398,0.2425,0.2472,0.2482,0.2492,0.2524,0.2536,0.2392,0.2392,0.2392,0,0.2252,0.2246,0.2253,0.2259,0.2268,0.228,0.2289,0.2301,0.231,0.2331,0.233,0.2375,0.2375,0.2412,0.2422,0.2415,0.2435,0.2404,0.2481,0.2491,0.2499,0.253,0.2543,0.2395,0.2395,0.2394,0.2394,0,0.2246,0.2254,0.2257,0.2268,0.2281,0.2286,0.2309,0.2329,0.2355,0.2373,0.2425,0.2433,0.2458,0.2465,0.2455,0.2513,0.2506,0.2493,0.247,0.2516,0.2544,0.2556,0.2399,0.2398,0.2397,0.2397,0,0,0.2231,0.2249,0.2254,0.2262,0.2287,0.2292,0.233,0.2364,0.2403,0.243,0.2475,0.2511,0.253,0.2536,0.2535,0.2567,0.2646,0.2554,0.2555,0.2595,0.2747,0.2643,0.2646,0.2652,0.2654,0.2656,0.2744,0,0.2226,0.2231,0.225,0.2269,0.2276,0.2308,0.2339,0.2382,0.2429,0.2475,0.2513,0.2559,0.2552,0.2575,0.261,0.2646,0.2679,0.2623,0.2688,0.269,0.26,0.2656,0.2418,0.2467,0.2755,0.2757,0.2758,0,0.2218,0.2224,0.2235,0.2269,0.2279,0.23,0.2365,0.2398,0.2476,0.2515,0.2578,0.261,0.2675,0.2652,0.2752,0.2719,0.2737,0.2755,0.2759,0.2649,0.2608,0.2466,0.2478,0.2778,0.2776,0.2775,0.2774,0,0.2194,0.2218,0.2224,0.2232,0.2273,0.23,0.2335,0.2416,0.2457,0.2551,0.2603,0.2678,0.2724,0.2778,0.2821,0.2801,0.2916,0.2892,0.2814,0.2807,0.2607,0.2578,0.2953,0.2953,0.2953,0.2953,0.2952,0,0.2173,0.218,0.2215,0.2217,0.2244,0.2291,0.2349,0.2397,0.248,0.2537,0.2626,0.268,0.2761,0.283,0.2855,0.2877,0.2952,0.2833,0.2828,0.2619,0.2591,0.2856,0.2844,0.2956,0.2955,0.2955,0.2954,0,0.2136,0.2156,0.2164,0.2209,0.223,0.2253,0.2336,0.2379,0.2478,0.2556,0.2588,0.2703,0.2804,0.2872,0.2956,0.2912,0.2945,0.2923,0.2664,0.2625,0.2796,0.2786,0.286,0.2857,0.2854,0.2852,0.2851,0,0.211,0.2108,0.2148,0.2165,0.2186,0.2236,0.227,0.2358,0.2406,0.2561,0.2583,0.2714,0.276,0.2854,0.2822,0.2846,0.2923,0.2609,0.2514,0.2802,0.2791,0.2784,0.2777,0.2284,0.2278,0.2273,0.2269,0,0.2065,0.2081,0.2096,0.2124,0.2156,0.218,0.2239,0.2263,0.2372,0.2436,0.2512,0.2565,0.2659,0.256,0.2584,0.2559,0.2587,0.2504,0.2896,0.2332,0.2262,0.225,0.2262,0.2224,0.2228,0.2231,0.2234,0.2236,0.2042,0.2028,0.2057,0.2079,0.2105,0.2102,0.2093,0.215,0.2178,0.2233,0.2355,0.236,0.2383,0.2298,0.2224,0.216,0.2346,0.2221,0.2236,0.2256,0.2161,0.2089,0.2001,0.2004,0.2007,0.2009,0.2011,0,0.1989,0.1993,0.2011,0.2003,0.1976,0.2038,0.2049,0.2005,0.1979,0.2055,0.2091,0.1925,0.1861,0.1908,0.173,0.1697,0.1669,0.1626,0.1579,0.1625,0.1666,0.1539,0.1215,0.1213,0.1211,0.1208,0,0,0.1964,0.1954,0.1948,0.1882,0.1876,0.1818,0.18,0.1727,0.1735,0.1685,0.1667,0.182,0.1863,0.1543,0.1476,0.132,0.1465,0.1255,0.1896,0.1889,0.1927,0.2012,0.1869,0,0,0,0,0]},{"header":{"parameterUnit":"m.s-1","parameterCategory":2,"la1":30.2991,"la2":30.254,"lo1":-89.0895,"lo2":-89.0444,"dy":0.0017,"dx":0.0017,"nx":28,"ny":28,"refTime":"2026-01-05T03:00:00:Z","depth":"2","parameterNumber":3,"parameterNumberName":"V-component_of_CURRENTS"},"data":[0,0,0,0,0,0,0,0,0,0,0,0,0,0,0,0,0,0,0,0,0,0,0,0,0,0,0,0,0,0,0,0,0,0,0,0,0,0,0,0,0,0,0,0,0,0,0,0,0,0,0,0,0,0,0,0,0,0,0.027,0.027,0,0.0272,0.0272,0.0272,0.0267,0.0267,0.0267,0.0267,0.0243,0.0243,0.0242,0,0,0,0,0,0,0,0,0,0,0,0,0,0.0229,0.023,0.027,0.027,0.027,0.0272,0.0272,0.0272,0.0267,0.0267,0.0267,0.0267,0.0244,0.0243,0.0242,0,0,0,0,0,0,0,0,0,0,0,0,0,0.0241,0.0231,0.027,0.0268,0.0268,0.0272,0.0272,0.0272,0.0267,0.0267,0.0267,0.0267,0.0244,0.0243,0.0242,0.0242,0,0,0.024,0.024,0,0,0,0,0,0,0,0,0.024,0.0242,0.0268,0.0268,0.0268,0.027,0.0249,0.0261,0.0267,0.0267,0.0267,0.0266,0.025,0.0249,0.025,0.024,0.0239,0.024,0.0239,0.0239,0.0239,0,0,0,0,0,0,0,0.0239,0.0242,0.0271,0.0269,0.0268,0.0256,0.0258,0.0251,0.0259,0.0267,0.0267,0.0268,0.025,0.025,0.0249,0.0239,0.024,0.0239,0.0239,0.0239,0.0228,0.0228,0,0,0,0,0,0,0.0242,0.0241,0.0271,0.0271,0.0254,0.0257,0.0259,0.0269,0.0259,0.0258,0.0268,0.0267,0.0252,0.025,0.0248,0.0254,0.0239,0.0238,0.0238,0.0227,0.0228,0.0228,0,0,0,0,0,0,0.0241,0.0245,0.027,0.0256,0.0258,0.0259,0.0269,0.0269,0.0269,0.0261,0.0259,0.0268,0.0251,0.0249,0.0247,0.0253,0.0238,0.0237,0.0227,0.0228,0.0228,0.0262,0,0,0,0,0,0,0.024,0.0245,0.0249,0.0256,0.0259,0.0278,0.027,0.0269,0.0271,0.027,0.026,0.0258,0.0251,0.0248,0.0246,0.0252,0.0237,0.0227,0.0227,0.0228,0.0261,0.0263,0.0266,0,0,0,0,0,0.0239,0.0251,0.025,0.0253,0.0267,0.0278,0.0278,0.0277,0.0271,0.0275,0.0269,0.0258,0.0249,0.0248,0.0246,0.0251,0.0227,0.0227,0.0228,0.026,0.0263,0.0266,0,0,0,0,0,0,0.0235,0.0251,0.0251,0.0266,0.0272,0.0277,0.0281,0.0278,0.0276,0.0275,0.0263,0.026,0.0259,0.025,0.025,0.0248,0.0235,0.0235,0.026,0.0263,0.0265,0.0277,0.0236,0,0,0,0,0,0.0237,0.0251,0.026,0.0272,0.0276,0.0278,0.028,0.028,0.0281,0.028,0.0273,0.0265,0.0259,0.0257,0.025,0.0251,0.024,0.0252,0.0254,0.0257,0.0264,0.0255,0.0258,0.0229,0.0229,0.0229,0,0,0.0237,0.0249,0.0255,0.0272,0.0276,0.0291,0.0279,0.0288,0.0299,0.0277,0.0287,0.0273,0.0261,0.0263,0.0261,0.0257,0.0257,0.0257,0.0259,0.0265,0.0256,0.0259,0.0262,0.0229,0.0229,0.0229,0,0,0.0251,0.0258,0.0275,0.0284,0.0295,0.0299,0.0302,0.0308,0.031,0.0316,0.0302,0.0293,0.0287,0.0281,0.0277,0.0288,0.0269,0.0281,0.0307,0.0299,0.0301,0.0303,0.0285,0.0285,0.0285,0.0285,0.0285,0,0.025,0.0278,0.028,0.03,0.0313,0.0305,0.0327,0.0328,0.0332,0.0338,0.0324,0.0314,0.0297,0.0304,0.0305,0.0295,0.0283,0.0298,0.0303,0.0305,0.0306,0.0287,0.0287,0.0286,0.0286,0.0286,0.0286,0,0.0281,0.03,0.0312,0.0338,0.0349,0.0368,0.0374,0.0381,0.0377,0.0378,0.038,0.0356,0.0352,0.034,0.0325,0.0329,0.0315,0.0306,0.0297,0.0311,0.029,0.0289,0.0289,0.0288,0.0288,0.0287,0,0,0.0289,0.0328,0.0332,0.0356,0.0375,0.0393,0.041,0.0431,0.0453,0.0434,0.0457,0.0429,0.041,0.0403,0.0378,0.0366,0.0357,0.0342,0.0341,0.0329,0.0333,0.0302,0.0298,0.035,0.0351,0.0351,0.0311,0,0.0315,0.0365,0.0375,0.0421,0.0449,0.0453,0.0477,0.0491,0.0495,0.0511,0.0479,0.0488,0.0436,0.0437,0.0413,0.0382,0.0358,0.0368,0.0318,0.0316,0.0291,0.0297,0.0318,0.0283,0.031,0.031,0.0309,0,0.0344,0.0378,0.0429,0.048,0.0493,0.0516,0.0562,0.0584,0.0596,0.06,0.0588,0.0564,0.0543,0.0497,0.0437,0.0447,0.0388,0.0353,0.0351,0.0312,0.0284,0.0274,0.028,0.0308,0.0308,0.0308,0.0308,0,0.0363,0.0416,0.0463,0.048,0.0531,0.0556,0.0584,0.061,0.0651,0.0659,0.0689,0.064,0.0639,0.0562,0.0472,0.046,0.0404,0.038,0.0291,0.0288,0.0291,0.0288,0.0327,0.0327,0.0327,0.0327,0.0328,0,0.0393,0.043,0.0478,0.0507,0.0572,0.0592,0.0662,0.068,0.0724,0.0792,0.0739,0.0775,0.0657,0.0608,0.0505,0.0399,0.0425,0.0298,0.0279,0.0301,0.03,0.0311,0.031,0.0326,0.0326,0.0326,0.0327,0,0.0408,0.0438,0.0498,0.0559,0.0584,0.0632,0.0723,0.0782,0.0811,0.0898,0.091,0.0883,0.0826,0.0696,0.0578,0.0457,0.0352,0.0301,0.0327,0.0311,0.0228,0.0229,0.0202,0.0201,0.02,0.0199,0.0198,0,0.0423,0.0455,0.0536,0.0587,0.0619,0.0696,0.0764,0.0818,0.0894,0.0977,0.1031,0.0993,0.0978,0.0777,0.0575,0.0384,0.0355,0.0253,0.0225,0.0233,0.0217,0.022,0.0222,0.024,0.0239,0.0239,0.0239,0,0.0453,0.0478,0.0531,0.0635,0.0713,0.0809,0.0909,0.098,0.1068,0.1137,0.1215,0.1204,0.1025,0.0834,0.0556,0.0422,0.0284,0.0239,0.0259,0.0264,0.0264,0.025,0.0252,0.0236,0.0236,0.0236,0.0236,0.0236,0.0475,0.0517,0.0593,0.0692,0.0788,0.0915,0.101,0.1117,0.1236,0.1345,0.1332,0.131,0.1095,0.0738,0.0514,0.0266,0.0277,0.0173,0.0177,0.018,0.0187,0.0185,0.0143,0.0143,0.0142,0.0142,0.0142,0,0.0511,0.0565,0.0654,0.0778,0.089,0.0939,0.111,0.1201,0.1343,0.1405,0.1449,0.1227,0.1018,0.0771,0.0412,0.0191,0.0178,0.0111,0.0153,0.0158,0.0161,0.0169,0.0119,0.0118,0.0118,0.0117,0,0,0.0534,0.0617,0.0663,0.0841,0.0938,0.1098,0.1201,0.1319,0.1395,0.1441,0.1416,0.1372,0.108,0.0811,0.0532,0.033,0.0287,0.0279,0.0322,0.0411,0.0417,0.0222,0.0243,0,0,0,0,0]}],[{"header":{"parameterUnit":"m.s-1","parameterCategory":2,"la1":30.2991,"la2":30.254,"lo1":-89.0895,"lo2":-89.0444,"dy":0.0017,"dx":0.0017,"nx":28,"ny":28,"refTime":"2026-01-05T03:00:00:Z","depth":"4","parameterNumber":2,"parameterNumberName":"U-component_of_CURRENTS"},"data":[0,0,0,0,0,0,0,0,0,0,0,0,0,0,0,0,0,0,0,0,0,0,0,0,0,0,0,0,0,0,0,0,0,0,0,0,0,0,0,0,0,0,0,0,0,0,0,0,0,0,0,0,0,0,0,0,0,0,0.1291,0.1291,0,0.1326,0.1326,0.1326,0.1362,0.1363,0.1363,0.1364,0.14,0.1401,0.1401,0,0,0,0,0,0,0,0,0,0,0,0,0,0.126,0.126,0.1291,0.1291,0.1292,0.1326,0.1326,0.1326,0.1362,0.1363,0.1363,0.1364,0.14,0.1401,0.1401,0,0,0,0,0,0,0,0,0,0,0,0,0,0.128,0.126,0.1291,0.1315,0.1318,0.1325,0.1326,0.1326,0.1362,0.1363,0.1364,0.1365,0.14,0.1401,0.1401,0.1385,0,0,0.1403,0.1403,0,0,0,0,0,0,0,0,0.1279,0.1281,0.1311,0.1313,0.1316,0.1342,0.1329,0.1347,0.1362,0.1343,0.1364,0.1365,0.1381,0.1383,0.1386,0.1387,0.1389,0.1403,0.1403,0.1404,0.1404,0,0,0,0,0,0,0,0.1277,0.128,0.1303,0.1311,0.1315,0.1326,0.133,0.1332,0.1355,0.1345,0.1348,0.1354,0.1383,0.1385,0.1387,0.1389,0.1403,0.1403,0.1404,0.1404,0.147,0.1471,0,0,0,0,0,0,0.1275,0.1278,0.1302,0.1304,0.1302,0.1326,0.133,0.1331,0.1355,0.136,0.1353,0.1356,0.1383,0.1386,0.1388,0.1449,0.1404,0.1404,0.1404,0.1468,0.147,0.1472,0,0,0,0,0,0,0.1274,0.1277,0.13,0.1294,0.1298,0.1325,0.1327,0.1332,0.1363,0.1362,0.1367,0.1383,0.1384,0.1387,0.1415,0.1447,0.1404,0.1405,0.1467,0.1469,0.1471,0.1519,0,0,0,0,0,0,0.1273,0.1276,0.1289,0.1293,0.1298,0.1321,0.1326,0.1332,0.1364,0.1368,0.1388,0.1391,0.1385,0.1414,0.1415,0.1447,0.1405,0.1465,0.1468,0.147,0.1516,0.1523,0.1529,0,0,0,0,0,0.1272,0.1279,0.1289,0.1293,0.1311,0.1321,0.1325,0.1347,0.1365,0.1379,0.1397,0.1392,0.1432,0.1415,0.1416,0.1449,0.1464,0.1467,0.147,0.1513,0.1521,0.1529,0,0,0,0,0,0,0.1274,0.1283,0.1295,0.1306,0.1322,0.1329,0.1349,0.1362,0.1387,0.1403,0.1402,0.1406,0.1445,0.1439,0.1421,0.1478,0.145,0.1454,0.1483,0.1491,0.1497,0.15,0.1406,0,0,0,0,0,0.1279,0.129,0.13,0.1314,0.1325,0.1344,0.1358,0.1373,0.1389,0.1403,0.1417,0.1436,0.1454,0.1466,0.1478,0.1501,0.1506,0.1527,0.1533,0.1539,0.1543,0.1585,0.1596,0.1482,0.1482,0.1482,0,0,0.1284,0.1293,0.1301,0.1317,0.1334,0.135,0.1355,0.1384,0.1405,0.1401,0.1444,0.146,0.1466,0.1498,0.1516,0.15,0.1573,0.1543,0.1547,0.1549,0.159,0.1601,0.161,0.1484,0.1484,0.1483,0,0,0.1292,0.1311,0.1321,0.1337,0.1367,0.1375,0.1391,0.1414,0.1438,0.1471,0.1481,0.1516,0.1539,0.1552,0.1559,0.1607,0.1607,0.1619,0.1652,0.1693,0.1703,0.1711,0.1727,0.1737,0.1621,0.1621,0.1621,0,0.1304,0.1313,0.1328,0.1344,0.1362,0.139,0.1408,0.1431,0.1464,0.1487,0.1496,0.1556,0.1564,0.1602,0.1624,0.1622,0.1639,0.162,0.1702,0.171,0.1718,0.1732,0.1742,0.1624,0.1623,0.1623,0.1623,0,0.131,0.1331,0.1342,0.137,0.139,0.1413,0.1442,0.1477,0.1513,0.1536,0.1596,0.1613,0.165,0.1663,0.1658,0.1721,0.1713,0.1706,0.168,0.1732,0.1744,0.1754,0.1628,0.1627,0.1626,0.1625,0,0,0.1302,0.1338,0.1347,0.1363,0.1408,0.142,0.1468,0.1509,0.1547,0.1596,0.1645,0.1689,0.1716,0.1726,0.1735,0.1769,0.1839,0.1768,0.1769,0.1781,0.1923,0.1781,0.1777,0.1854,0.1857,0.1858,0.1907,0,0.1307,0.1332,0.1354,0.1389,0.1403,0.1448,0.1484,0.1531,0.1579,0.1634,0.1679,0.1729,0.1734,0.1764,0.1804,0.1836,0.1868,0.1825,0.1874,0.1875,0.1739,0.1784,0.1865,0.1914,0.1916,0.1918,0.1919,0,0.1302,0.132,0.1351,0.1393,0.1407,0.1439,0.1507,0.1544,0.1625,0.1667,0.1736,0.1771,0.1843,0.1834,0.1922,0.1901,0.1921,0.1935,0.1937,0.1792,0.1749,0.1853,0.1936,0.1934,0.1933,0.1932,0.1931,0,0.1272,0.1316,0.1341,0.1357,0.1411,0.1448,0.149,0.1564,0.1607,0.1701,0.1748,0.1828,0.1887,0.1933,0.1977,0.1965,0.2058,0.2039,0.1922,0.1912,0.2005,0.1995,0.2094,0.2094,0.2094,0.2094,0.2094,0,0.125,0.1273,0.1335,0.1348,0.1385,0.1438,0.1498,0.155,0.1639,0.1688,0.1772,0.1818,0.1923,0.1982,0.2002,0.199,0.2084,0.1932,0.1919,0.2022,0.2014,0.2011,0.2,0.2095,0.2095,0.2095,0.2094,0,0.1204,0.1247,0.1276,0.1345,0.1372,0.1403,0.1498,0.1531,0.1631,0.1701,0.1738,0.1851,0.1923,0.199,0.2068,0.201,0.2014,0.1984,0.2088,0.208,0.1833,0.1825,0.1851,0.1847,0.1843,0.184,0.1837,0,0.1175,0.1189,0.1265,0.1281,0.1318,0.1379,0.1412,0.1518,0.1552,0.1697,0.1712,0.1831,0.1889,0.1887,0.1964,0.1978,0.1955,0.193,0.1876,0.1825,0.1811,0.1809,0.1806,0.1831,0.183,0.1829,0.1828,0,0.1114,0.1159,0.118,0.1223,0.1263,0.1293,0.1356,0.1378,0.1494,0.1604,0.165,0.1686,0.176,0.1808,0.1835,0.184,0.1929,0.1889,0.1896,0.1846,0.1801,0.179,0.1792,0.1815,0.1817,0.1818,0.1819,0,0.1072,0.107,0.1114,0.114,0.1181,0.1184,0.1235,0.1276,0.1333,0.1492,0.1508,0.163,0.1749,0.1736,0.176,0.1755,0.1722,0.1646,0.1665,0.1681,0.16,0.1516,0.1434,0,0,0,0,0,0.1019,0.1008,0.1023,0.1032,0.1068,0.11,0.1175,0.123,0.1354,0.1345,0.1424,0.1481,0.1525,0.1585,0.1546,0.1672,0.1722,0.1615,0.1643,0.174,0.1756,0.1674,0,0,0,0,0,0,0.0981,0.099,0.099,0.0941,0.0932,0.0957,0.1008,0.1092,0.1094,0.1234,0.1272,0.1372,0.1444,0.1538,0.1515,0.1531,0.151,0.1693,0.1688,0.1732,0.1746,0.1758,0.168,0,0,0,0,0]},{"header":{"parameterUnit":"m.s-1","parameterCategory":2,"la1":30.2991,"la2":30.254,"lo1":-89.0895,"lo2":-89.0444,"dy":0.0017,"dx":0.0017,"nx":28,"ny":28,"refTime":"2026-01-05T03:00:00:Z","depth":"4","parameterNumber":3,"parameterNumberName":"V-component_of_CURRENTS"},"data":[0,0,0,0,0,0,0,0,0,0,0,0,0,0,0,0,0,0,0,0,0,0,0,0,0,0,0,0,0,0,0,0,0,0,0,0,0,0,0,0,0,0,0,0,0,0,0,0,0,0,0,0,0,0,0,0,0,0,0.0257,0.0257,0,0.0267,0.0267,0.0267,0.0274,0.0274,0.0274,0.0274,0.028,0.028,0.028,0,0,0,0,0,0,0,0,0,0,0,0,0,0.0222,0.0223,0.0257,0.0257,0.0257,0.0267,0.0267,0.0267,0.0274,0.0274,0.0274,0.0274,0.028,0.028,0.028,0,0,0,0,0,0,0,0,0,0,0,0,0,0.0235,0.0223,0.0257,0.0262,0.0263,0.0267,0.0267,0.0267,0.0274,0.0274,0.0274,0.0274,0.028,0.028,0.028,0.028,0,0,0.0281,0.0281,0,0,0,0,0,0,0,0,0.0234,0.0236,0.0261,0.0262,0.0262,0.0269,0.0257,0.0271,0.0274,0.027,0.0274,0.0274,0.0276,0.0277,0.0278,0.028,0.028,0.0281,0.0281,0.0281,0.0281,0,0,0,0,0,0,0,0.0233,0.0236,0.0261,0.0261,0.0262,0.0256,0.0258,0.0259,0.0272,0.027,0.0271,0.0271,0.0276,0.0278,0.0278,0.028,0.0281,0.0281,0.0281,0.0281,0.0291,0.0291,0,0,0,0,0,0,0.0233,0.0235,0.0261,0.0261,0.0248,0.0256,0.0259,0.0267,0.0272,0.0273,0.0271,0.0272,0.0278,0.0278,0.0279,0.0294,0.0281,0.0281,0.0281,0.029,0.0291,0.0291,0,0,0,0,0,0,0.0233,0.0236,0.026,0.0248,0.0251,0.0257,0.0266,0.0267,0.0274,0.0273,0.0274,0.0277,0.0278,0.0278,0.0287,0.0294,0.0281,0.0281,0.029,0.029,0.0291,0.0314,0,0,0,0,0,0,0.0232,0.0236,0.0242,0.0248,0.0251,0.0268,0.0266,0.0267,0.0274,0.0274,0.0279,0.0279,0.0278,0.0287,0.0288,0.0294,0.0282,0.029,0.029,0.0291,0.0313,0.0315,0.0317,0,0,0,0,0,0.0231,0.0241,0.0243,0.0246,0.026,0.0268,0.027,0.0274,0.0274,0.0279,0.0283,0.0279,0.0289,0.0288,0.0288,0.0294,0.029,0.029,0.0291,0.0312,0.0315,0.0317,0,0,0,0,0,0,0.0228,0.0243,0.0245,0.0259,0.0265,0.027,0.0276,0.0277,0.0284,0.0286,0.0284,0.0285,0.0294,0.029,0.0289,0.0297,0.0287,0.0288,0.0304,0.0306,0.0308,0.0311,0.0282,0,0,0,0,0,0.0231,0.0244,0.0252,0.0263,0.0267,0.0272,0.0275,0.0279,0.0285,0.0288,0.0291,0.0292,0.0295,0.0298,0.0299,0.0305,0.0286,0.0308,0.031,0.0311,0.0313,0.0292,0.0292,0.0292,0.0292,0.0292,0,0,0.0232,0.0242,0.0249,0.0264,0.0269,0.0281,0.0275,0.0285,0.0296,0.0287,0.0304,0.03,0.0298,0.0306,0.0309,0.0305,0.0298,0.0312,0.0313,0.0314,0.0292,0.0292,0.0292,0.0292,0.0292,0.0292,0,0,0.0242,0.0252,0.0265,0.0274,0.0285,0.0289,0.0293,0.0301,0.0307,0.032,0.0315,0.0315,0.0323,0.032,0.032,0.0332,0.0309,0.0331,0.0344,0.0323,0.0323,0.0323,0.0287,0.0283,0.0332,0.0332,0.0332,0,0.0242,0.0264,0.0269,0.0284,0.0296,0.0295,0.0312,0.0317,0.0327,0.0334,0.0329,0.0333,0.0329,0.0336,0.034,0.0336,0.0315,0.0338,0.0326,0.0325,0.0324,0.0287,0.0283,0.0333,0.0333,0.0333,0.0333,0,0.0262,0.028,0.0289,0.0311,0.0322,0.0337,0.0346,0.0356,0.036,0.0363,0.0371,0.0362,0.0364,0.0359,0.0355,0.0349,0.0332,0.033,0.032,0.0325,0.0286,0.0281,0.0335,0.0334,0.0334,0.0334,0,0,0.0263,0.0298,0.0302,0.0322,0.0341,0.0356,0.0373,0.0391,0.0409,0.0403,0.0417,0.041,0.0399,0.0398,0.0385,0.0364,0.0334,0.0346,0.0345,0.0311,0.0275,0.0253,0.0245,0.0331,0.033,0.033,0.0245,0,0.0279,0.0316,0.0329,0.0367,0.0388,0.0398,0.042,0.0434,0.0441,0.0452,0.0432,0.0441,0.0416,0.0419,0.0392,0.0358,0.0324,0.0357,0.0275,0.0272,0.0253,0.024,0.0329,0.0242,0.024,0.0239,0.0239,0,0.0295,0.0322,0.0362,0.0407,0.0418,0.0441,0.048,0.05,0.0509,0.0514,0.0505,0.0488,0.0462,0.0439,0.0365,0.0387,0.0331,0.0292,0.0288,0.0258,0.0241,0.0238,0.0229,0.023,0.0231,0.0231,0.0232,0,0.0301,0.0346,0.0383,0.0399,0.0445,0.0469,0.0496,0.0519,0.0551,0.0553,0.0566,0.0525,0.0516,0.0442,0.0358,0.0363,0.0265,0.0263,0.0182,0.0179,0.0214,0.0215,0.0197,0.0197,0.0197,0.0198,0.0198,0,0.0315,0.0346,0.0393,0.0416,0.0471,0.0494,0.0552,0.0569,0.0601,0.064,0.0601,0.0606,0.0517,0.0452,0.0364,0.0255,0.0266,0.0177,0.0157,0.0224,0.0227,0.0209,0.0212,0.0194,0.0195,0.0196,0.0196,0,0.0316,0.0345,0.0395,0.0452,0.0477,0.0518,0.06,0.0643,0.0663,0.0708,0.0711,0.0669,0.0583,0.0474,0.0352,0.0272,0.0165,0.0119,0.0185,0.0171,0.0087,0.0092,0.0023,0.0021,0.002,0.0019,0.0018,0,0.0321,0.0345,0.0422,0.0465,0.0497,0.0566,0.0623,0.0672,0.0718,0.0745,0.0763,0.0695,0.0648,0.0454,0.0335,0.0151,0.0126,0.006,0.0081,0.0082,0.007,0.0077,0.0083,0.0016,0.0016,0.0016,0.0015,0,0.0331,0.0359,0.0404,0.0489,0.0557,0.0637,0.0714,0.075,0.0806,0.0819,0.0802,0.0706,0.0603,0.0452,0.0304,0.0176,0.0101,0.0047,0.0049,0.0068,0.0074,0.0064,0.0072,0.0011,0.0012,0.0012,0.0012,0,0.0341,0.0374,0.0438,0.0515,0.0599,0.0684,0.0727,0.0781,0.0825,0.0845,0.0834,0.0724,0.0664,0.0463,0.033,0.0198,0.0166,0.0122,0.0119,0.0123,0.0177,0.0202,0.0156,0,0,0,0,0,0.0351,0.0393,0.0463,0.055,0.0634,0.0689,0.078,0.0818,0.0861,0.0854,0.0848,0.0748,0.0557,0.0474,0.0337,0.0301,0.0139,0.0135,0.0085,-0.0012,-0.0008,0.0038,0,0,0,0,0,0,0.036,0.0421,0.0459,0.0564,0.0628,0.0729,0.0791,0.0827,0.0821,0.0836,0.0735,0.0697,0.0509,0.0629,0.0327,0.0288,0.0235,0.0049,0.0046,-0.0015,-0.0011,-0.0007,0.0042,0,0,0,0,0]}]]